Location: Frizzleburg
(41.0764°N, 80.4548°W)
Time: 02:55:53
(UTC+00:00)

GPS 2-04 Rocket1 - Pass Details

Date: 17 November 2019
Orbit: 418 x 552 km, 35.6° (Epoch: 11 December)

Event Time Altitude Azimuth Distance (km) Brightness Sun altitude
Rises 00:03:27 0° 235° (SW) 2,366 7.0 -22.8°
Reaches altitude 10° 00:05:51 10° 220° (SW) 1,492 5.6 -23.2°
Enters shadow 00:07:24 19° 197° (SSW) 1,070 4.5 -23.5°
